NK0V Weather Reports


Display with metric or nautical units.
time (UTC)temp
F
wind
direction
speed
MPH
gust
MPH
rain 1hr
in
rain 24hr
in
rain mn
in
humidity
%
barometer
mb
20260903005559 84 103 0.0 2.0 0.00 0.02 0.01 67 1010.4
20260903005058 85 0 0.0 3.0 0.00 0.02 0.01 66 1010.4
20260903004600 85 107 0.0 3.0 0.00 0.02 0.01 66 1010.3
20260903004059 85 110 1.0 2.0 0.00 0.02 0.01 65 1010.3
20260903003558 86 105 0.0 2.0 0.00 0.02 0.01 65 1010.4
20260903003105 86 122 1.0 3.0 0.00 0.02 0.01 64 1010.3
20260903002559 86 121 0.0 3.0 0.00 0.02 0.01 64 1010.3
20260903002059 86 121 1.0 3.0 0.00 0.02 0.01 64 1010.3
20260903001610 86 120 1.0 3.0 0.00 0.02 0.01 64 1010.3
20260903001058 86 111 1.0 3.0 0.00 0.02 0.01 64 1010.3
20260903000558 86 114 1.0 3.0 0.00 0.02 0.01 64 1010.3
20260903000104 86 143 0.0 5.0 0.00 0.02 0.01 63 1010.4
20260902235559 86 141 1.0 5.0 0.00 0.02 0.01 63 1010.4
20260902235059 87 140 1.0 5.0 0.00 0.02 0.01 62 1010.4
20260902234626 87 152 1.0 6.0 0.00 0.02 0.01 62 1010.5
20260902234103 87 128 2.0 6.0 0.00 0.02 0.01 61 1010.4
20260902233559 87 190 1.0 4.0 0.00 0.02 0.01 62 1010.3
20260902233103 87 115 1.0 7.0 0.00 0.02 0.01 61 1010.3
20260902232601 87 115 2.0 7.0 0.00 0.02 0.01 61 1010.3
20260902232058 88 105 3.0 7.0 0.00 0.02 0.01 59 1010.4
20260902231612 88 152 2.0 6.0 0.00 0.02 0.01 59 1010.4
20260902231056 88 119 2.0 6.0 0.00 0.02 0.01 59 1010.3
20260902230602 88 109 1.0 7.0 0.00 0.02 0.01 59 1010.3
20260902230116 88 115 3.0 7.0 0.00 0.02 0.01 57 1010.2
20260902225559 89 121 2.0 7.0 0.00 0.02 0.01 58 1010.3
20260902225059 89 110 2.0 7.0 0.00 0.02 0.01 57 1010.3
20260902224604 89 116 2.0 8.0 0.00 0.02 0.01 58 1010.3
20260902224059 89 100 2.0 8.0 0.00 0.02 0.01 57 1010.3
20260902223559 89 114 3.0 6.0 0.00 0.02 0.01 56 1010.3
20260902223105 89 130 3.0 8.0 0.00 0.02 0.01 57 1010.3
20260902222558 89 120 3.0 8.0 0.00 0.02 0.01 56 1010.3
20260902222104 89 99 3.0 9.0 0.00 0.02 0.01 56 1010.4
20260902221616 89 121 3.0 9.0 0.00 0.02 0.01 56 1010.4
20260902221059 89 85 3.0 9.0 0.00 0.02 0.01 56 1010.3
20260902220601 89 138 3.0 8.0 0.00 0.02 0.01 55 1010.4
20260902220107 89 116 3.0 8.0 0.00 0.02 0.01 56 1010.4
20260902215559 89 99 3.0 7.0 0.00 0.02 0.01 56 1010.5
20260902215055 90 92 3.0 8.0 0.00 0.02 0.01 56 1010.4
20260902214615 90 108 2.0 9.0 0.00 0.02 0.01 55 1010.5
20260902214059 90 61 3.0 9.0 0.00 0.02 0.01 55 1010.3
20260902213555 90 130 3.0 9.0 0.00 0.02 0.01 56 1010.4
20260902213104 90 85 3.0 9.0 0.00 0.02 0.01 56 1010.5
20260902212555 90 109 3.0 8.0 0.00 0.02 0.01 56 1010.4
20260902212056 90 130 2.0 8.0 0.00 0.02 0.01 56 1010.4
20260902211558 90 104 2.0 8.0 0.00 0.02 0.01 56 1010.6
20260902211058 90 104 3.0 8.0 0.00 0.02 0.01 56 1010.5
20260902210600 91 96 3.0 9.0 0.00 0.02 0.01 55 1010.6
20260902205555 91 142 3.0 9.0 0.00 0.02 0.01 54 1010.7
20260902205059 91 132 2.0 9.0 0.00 0.02 0.01 54 1010.7
20260902204557 91 132 4.0 9.0 0.00 0.02 0.01 54 1010.7
20260902204058 91 75 4.0 9.0 0.00 0.02 0.01 55 1010.7
20260902203556 91 96 2.0 10.0 0.00 0.02 0.01 55 1010.7
20260902203059 91 93 3.0 10.0 0.00 0.02 0.01 56 1010.8
20260902202557 91 106 3.0 9.0 0.00 0.02 0.01 56 1010.8
20260902202058 91 81 3.0 9.0 0.00 0.02 0.01 55 1010.8
20260902201558 92 136 2.0 8.0 0.00 0.02 0.01 56 1010.9
20260902201056 92 123 3.0 9.0 0.00 0.02 0.01 53 1010.9
20260902200557 92 115 3.0 9.0 0.00 0.02 0.01 54 1010.9
20260902200103 92 57 3.0 8.0 0.00 0.02 0.01 55 1011.1
20260902195600 92 147 3.0 8.0 0.00 0.02 0.01 56 1011.1
20260902195057 91 115 2.0 7.0 0.00 0.02 0.01 55 1011.1
20260902194604 91 82 2.0 8.0 0.00 0.02 0.01 55 1011.1
20260902194057 91 109 3.0 8.0 0.00 0.02 0.01 57 1011.3
20260902193556 91 100 1.0 8.0 0.00 0.02 0.01 54 1011.3
20260902193058 91 146 2.0 8.0 0.00 0.02 0.01 54 1011.4
20260902192600 91 107 2.0 10.0 0.00 0.02 0.01 54 1011.4
20260902192100 90 91 3.0 10.0 0.00 0.02 0.01 54 1011.4
20260902191556 90 92 2.0 10.0 0.00 0.02 0.01 55 1011.4
20260902191058 90 144 2.0 9.0 0.00 0.02 0.01 55 1011.5
20260902190557 90 96 2.0 9.0 0.00 0.02 0.01 56 1011.6
20260902185556 90 94 2.0 8.0 0.00 0.02 0.01 54 1011.6
20260902185100 90 66 2.0 8.0 0.00 0.02 0.01 53 1011.7
20260902184604 89 110 3.0 10.0 0.00 0.02 0.01 51 1011.8
20260902184056 89 127 3.0 10.0 0.00 0.02 0.01 53 1011.8
20260902183557 89 109 2.0 7.0 0.00 0.02 0.01 55 1011.9
20260902183059 89 29 1.0 7.0 0.00 0.02 0.01 56 1012.0
20260902182638 88 129 2.0 7.0 0.00 0.02 0.01 55 1012.1
20260902182101 88 123 2.0 7.0 0.00 0.02 0.01 57 1012.1
20260902181602 88 93 2.0 7.0 0.00 0.02 0.01 57 1012.2
20260902181101 88 111 2.0 7.0 0.00 0.02 0.01 57 1012.3
20260902180601 88 102 2.0 8.0 0.00 0.02 0.01 54 1012.3
20260902180108 88 128 3.0 8.0 0.00 0.02 0.01 55 1012.3
20260902175559 88 119 2.0 8.0 0.00 0.02 0.01 55 1012.4
20260902175059 88 117 1.0 9.0 0.00 0.02 0.01 55 1012.4
20260902174606 88 113 3.0 9.0 0.00 0.02 0.01 57 1012.4
20260902174058 88 77 2.0 7.0 0.00 0.02 0.01 57 1012.5
20260902173559 87 18 2.0 7.0 0.00 0.02 0.01 56 1012.5
20260902173105 87 117 2.0 7.0 0.00 0.02 0.01 52 1012.6
20260902172558 87 101 2.0 7.0 0.00 0.02 0.01 54 1012.7
20260902172102 87 78 2.0 7.0 0.00 0.02 0.01 56 1012.7
20260902171608 86 118 1.0 8.0 0.00 0.02 0.01 56 1012.8
20260902171059 86 92 2.0 8.0 0.00 0.02 0.01 58 1012.8
20260902170555 85 115 2.0 8.0 0.00 0.02 0.01 58 1012.9
20260902165559 85 129 2.0 8.0 0.00 0.02 0.01 59 1012.8
20260902165101 84 101 2.0 7.0 0.00 0.02 0.01 59 1013.0
20260902164602 84 128 0.0 7.0 0.00 0.02 0.01 59 1013.0
20260902164059 83 57 3.0 7.0 0.00 0.02 0.01 60 1012.9
20260902163602 83 106 2.0 7.0 0.00 0.02 0.01 63 1012.9
20260902163106 82 78 2.0 7.0 0.00 0.02 0.01 64 1012.9
20260902162602 81 117 2.0 7.0 0.00 0.02 0.01 69 1012.9
20260902162058 81 83 2.0 7.0 0.00 0.02 0.01 67 1013.0
20260902161615 80 121 2.0 8.0 0.00 0.02 0.01 68 1013.1
20260902161059 79 76 2.0 8.0 0.00 0.02 0.01 67 1013.1
20260902160559 78 109 2.0 8.0 0.00 0.02 0.01 71 1013.1
20260902155558 77 36 1.0 6.0 0.00 0.02 0.01 70 1013.1
20260902155059 77 79 1.0 5.0 0.00 0.02 0.01 74 1013.1
20260902154601 76 92 0.0 5.0 0.00 0.02 0.01 75 1013.1
20260902154059 75 124 2.0 5.0 0.00 0.02 0.01 75 1013.3
20260902153559 74 0 0.0 6.0 0.00 0.02 0.01 78 1013.1
20260902153114 73 97 1.0 6.0 0.00 0.02 0.01 78 1013.2
20260902152558 72 104 2.0 6.0 0.00 0.02 0.01 80 1013.3
20260902152058 71 68 1.0 6.0 0.00 0.02 0.01 82 1013.2
20260902151601 70 125 2.0 4.0 0.01 0.02 0.01 83 1013.4
20260902151059 69 98 0.0 4.0 0.01 0.02 0.01 84 1013.4
20260902150559 68 132 1.0 3.0 0.01 0.02 0.01 85 1013.5
20260902150103 68 109 0.0 4.0 0.01 0.02 0.01 86 1013.4
20260902145558 67 88 1.0 4.0 0.01 0.02 0.01 88 1013.3
20260902145058 66 124 0.0 3.0 0.01 0.02 0.01 88 1013.1
20260902144627 66 78 0.0 4.0 0.01 0.02 0.01 86 1013.1
20260902144059 66 0 1.0 4.0 0.01 0.02 0.01 85 1013.0
20260902143559 66 79 1.0 9.0 0.01 0.02 0.01 85 1012.7
20260902143113 66 85 1.0 9.0 0.01 0.02 0.01 84 1013.1
20260902142601 66 240 4.0 9.0 0.01 0.02 0.01 84 1013.8
20260902142059 66 124 1.0 6.0 0.01 0.02 0.01 84 1013.4
20260902141558 66 0 1.0 6.0 0.00 0.01 0.00 83 1013.4
20260902141059 66 360 2.0 6.0 0.00 0.01 0.00 83 1013.8
20260902140601 66 32 1.0 3.0 0.00 0.01 0.00 83 1013.7
20260902135559 66 38 2.0 4.0 0.00 0.01 0.00 83 1013.7
20260902135058 66 33 1.0 4.0 0.00 0.01 0.00 82 1013.4
20260902134603 66 0 2.0 10.0 0.00 0.01 0.00 82 1013.1
20260902134101 66 42 2.0 10.0 0.00 0.01 0.00 82 1013.3
20260902133559 66 14 3.0 9.0 0.00 0.01 0.00 83 1013.1
20260902133102 65 13 4.0 9.0 0.00 0.01 0.00 83 1013.4
20260902132559 65 41 2.0 9.0 0.00 0.01 0.00 84 1013.7
20260902132059 65 0 1.0 9.0 0.00 0.01 0.00 84 1013.9
20260902131601 64 20 4.0 9.0 0.00 0.01 0.00 84 1013.9
20260902131059 64 58 4.0 9.0 0.00 0.01 0.00 84 1013.8
20260902130559 64 30 4.0 9.0 0.00 0.01 0.00 84 1013.9
20260902125558 64 28 0.0 4.0 0.00 0.01 0.00 84 1013.4
20260902125059 64 0 0.0 4.0 0.00 0.01 0.00 84 1013.1
20260902124610 64 23 0.0 2.0 0.00 0.01 0.00 84 1013.1
20260902124102 64 0 0.0 4.0 0.00 0.01 0.00 84 1013.1
20260902123555 64 0 0.0 4.0 0.00 0.01 0.00 83 1013.2
20260902123103 64 0 0.0 2.0 0.00 0.01 0.00 83 1013.3
20260902122600 64 0 0.0 2.0 0.00 0.01 0.00 82 1013.2
20260902122058 64 86 1.0 3.0 0.00 0.01 0.00 82 1013.1
20260902121613 64 106 0.0 3.0 0.00 0.01 0.00 82 1013.2
20260902121059 64 113 0.0 2.0 0.00 0.01 0.00 82 1013.0
20260902120559 64 0 0.0 2.0 0.00 0.01 0.00 82 1012.9
20260902120110 64 0 0.0 2.0 0.00 0.01 0.00 82 1012.9
20260902115558 64 0 0.0 3.0 0.00 0.01 0.00 82 1012.9
20260902115058 64 0 0.0 3.0 0.00 0.01 0.00 82 1013.0
20260902114618 64 69 0.0 3.0 0.00 0.01 0.00 82 1012.8
20260902114059 64 29 0.0 3.0 0.00 0.01 0.00 82 1012.7
20260902113559 64 35 1.0 3.0 0.00 0.01 0.00 82 1012.7
20260902113102 64 13 0.0 3.0 0.00 0.01 0.00 82 1012.5
20260902112558 64 0 0.0 3.0 0.00 0.01 0.00 82 1012.5
20260902112100 64 27 1.0 5.0 0.00 0.01 0.00 82 1012.3
20260902111605 64 51 1.0 5.0 0.00 0.01 0.00 82 1012.2
20260902111059 64 27 2.0 6.0 0.00 0.01 0.00 81 1012.2
20260902110602 64 14 2.0 6.0 0.00 0.01 0.00 81 1012.3
20260902105602 64 32 1.0 4.0 0.00 0.01 0.00 81 1012.2
20260902105058 64 24 1.0 4.0 0.00 0.01 0.00 81 1012.3
20260902104604 64 19 1.0 3.0 0.00 0.01 0.00 81 1012.4
20260902104059 64 0 0.0 4.0 0.00 0.01 0.00 81 1012.5
20260902103604 64 0 1.0 4.0 0.00 0.01 0.00 81 1012.5
20260902103119 64 40 1.0 4.0 0.00 0.01 0.00 81 1012.5
20260902102600 64 19 1.0 4.0 0.00 0.01 0.00 80 1012.6
20260902102059 64 25 1.0 4.0 0.00 0.01 0.00 80 1012.5
20260902101600 64 9 1.0 3.0 0.00 0.01 0.00 80 1012.5
20260902101058 64 24 1.0 3.0 0.00 0.01 0.00 80 1012.5
20260902100558 64 20 0.0 2.0 0.00 0.01 0.00 79 1012.6
20260902100104 65 0 0.0 2.0 0.00 0.01 0.00 79 1012.7
20260902095601 65 45 0.0 3.0 0.00 0.01 0.00 78 1012.7
20260902095059 65 78 0.0 3.0 0.00 0.01 0.00 78 1012.8
20260902094601 65 91 0.0 3.0 0.00 0.01 0.00 78 1012.8
20260902094059 65 24 0.0 2.0 0.00 0.01 0.00 78 1012.8
20260902093559 65 0 0.0 2.0 0.00 0.01 0.00 78 1012.9
20260902093112 65 32 0.0 4.0 0.00 0.01 0.00 78 1013.1
20260902092600 65 0 1.0 4.0 0.00 0.01 0.00 78 1013.1
20260902092101 65 24 1.0 4.0 0.00 0.01 0.00 77 1013.2
20260902091605 65 72 0.0 2.0 0.00 0.01 0.00 77 1013.2
20260902091102 65 26 0.0 2.0 0.00 0.01 0.00 77 1013.4
20260902090559 65 28 0.0 2.0 0.00 0.01 0.00 77 1013.5
20260902090109 65 26 0.0 5.0 0.00 0.01 0.00 77 1013.2
20260902085558 65 28 0.0 6.0 0.00 0.01 0.00 77 1013.3
20260902085059 65 69 1.0 6.0 0.00 0.01 0.00 77 1013.6
20260902084610 65 86 0.0 3.0 0.00 0.01 0.00 77 1013.6
20260902084058 65 0 0.0 3.0 0.00 0.01 0.00 77 1014.0
20260902083558 65 0 0.0 2.0 0.00 0.01 0.00 77 1014.3
20260902083104 65 0 0.0 5.0 0.00 0.01 0.00 77 1014.4
20260902082559 65 0 0.0 5.0 0.00 0.01 0.00 77 1014.4
20260902082059 66 20 2.0 5.0 0.00 0.01 0.00 77 1013.9
20260902081559 66 0 0.0 7.0 0.00 0.01 0.00 77 1013.4
20260902081058 66 84 0.0 7.0 0.00 0.01 0.00 77 1013.4
20260902080558 66 88 0.0 7.0 0.00 0.01 0.00 78 1013.2
20260902080105 66 0 0.0 3.0 0.00 0.01 0.00 78 1012.7
20260902075558 66 0 0.0 3.0 0.00 0.01 0.00 78 1012.5
20260902075058 66 52 1.0 2.0 0.00 0.01 0.00 78 1012.7
20260902074613 66 34 0.0 4.0 0.00 0.01 0.00 78 1012.7
20260902074055 66 0 0.0 4.0 0.00 0.01 0.00 76 1012.8
20260902073602 66 81 0.0 4.0 0.00 0.01 0.00 76 1012.8
20260902073105 66 0 0.0 3.0 0.00 0.01 0.00 76 1012.7
20260902072558 66 59 0.0 3.0 0.00 0.01 0.00 76 1012.7
20260902072059 66 19 0.0 2.0 0.00 0.01 0.00 76 1012.7
20260902071604 66 0 0.0 2.0 0.00 0.01 0.00 75 1012.8
20260902071059 66 0 0.0 6.0 0.00 0.01 0.00 75 1013.2
20260902070558 67 0 1.0 7.0 0.00 0.01 0.00 73 1013.1
20260902065558 67 0 0.0 3.0 0.00 0.01 0.00 72 1013.0
20260902065100 67 0 0.0 3.0 0.00 0.01 0.00 71 1012.9
20260902064602 67 46 0.0 4.0 0.00 0.01 0.00 71 1012.6
20260902064059 67 0 0.0 4.0 0.00 0.01 0.00 71 1012.5
20260902063558 67 19 0.0 5.0 0.00 0.01 0.00 71 1012.6
20260902063059 67 25 1.0 9.0 0.00 0.01 0.00 71 1012.6
20260902062559 67 19 3.0 9.0 0.00 0.01 0.00 71 1012.4
20260902062059 67 9 3.0 9.0 0.00 0.01 0.00 71 1012.3
20260902061559 67 24 3.0 12.0 0.00 0.01 0.00 72 1012.1
20260902061059 67 355 3.0 12.0 0.00 0.01 0.00 74 1012.2
20260902060600 67 38 3.0 8.0 0.00 0.01 0.00 74 1012.3
20260902060107 67 0 0.0 5.0 0.00 0.01 0.00 74 1012.7
20260902055558 67 40 1.0 5.0 0.00 0.01 0.00 74 1012.7
20260902055059 67 83 2.0 5.0 0.00 0.01 0.00 74 1012.7
20260902054601 67 25 0.0 5.0 0.00 0.01 0.00 75 1013.0
20260902054058 67 67 0.0 5.0 0.00 0.01 0.00 75 1012.9
20260902053558 67 0 0.0 3.0 0.00 0.01 0.00 75 1012.9
20260902053107 67 47 1.0 3.0 0.00 0.01 0.00 76 1012.7
20260902052555 67 62 1.0 3.0 0.00 0.01 0.00 76 1012.7
20260902052055 68 24 0.0 4.0 0.00 0.01 0.00 77 1012.5
20260902051606 68 30 1.0 4.0 0.00 0.01 0.00 77 1012.4
20260902051059 68 150 1.0 4.0 0.00 0.01 0.00 78 1012.3
20260902050601 68 36 0.0 5.0 0.00 0.01 0.00 79 1012.5
20260902050100 68 0 1.0 5.0 0.00 0.01 0.00 79 1012.5
20260902045559 68 59 0.0 2.0 0.00 0.01 0.01 79 1012.5
20260902045058 68 0 0.0 3.0 0.00 0.01 0.01 79 1012.7
20260902044604 68 10 0.0 3.0 0.00 0.01 0.01 79 1012.9
20260902044059 68 14 1.0 3.0 0.00 0.01 0.01 79 1013.0
20260902043556 68 0 1.0 7.0 0.00 0.01 0.01 78 1013.2
20260902043109 68 24 2.0 7.0 0.00 0.01 0.01 78 1013.5
20260902042603 68 36 1.0 4.0 0.00 0.01 0.01 78 1013.2
20260902042055 68 0 0.0 3.0 0.00 0.01 0.01 79 1013.2
20260902041601 68 58 1.0 3.0 0.00 0.01 0.01 79 1013.5
20260902041058 68 21 0.0 3.0 0.00 0.01 0.01 79 1013.5
20260902040555 67 32 0.0 10.0 0.00 0.01 0.01 80 1013.7
20260902040107 67 0 1.0 10.0 0.00 0.01 0.01 80 1013.5
20260902035555 67 67 3.0 9.0 0.00 0.01 0.01 80 1013.2
20260902035058 67 74 1.0 9.0 0.01 0.01 0.01 81 1013.3
20260902034607 67 17 2.0 5.0 0.01 0.01 0.01 81 1013.3
20260902034058 67 57 1.0 5.0 0.01 0.01 0.01 82 1013.1
20260902033558 67 16 2.0 5.0 0.01 0.01 0.01 82 1013.4
20260902033108 67 57 1.0 6.0 0.01 0.01 0.01 83 1013.9
20260902032559 67 0 1.0 9.0 0.01 0.01 0.01 83 1013.9
20260902032058 67 34 3.0 9.0 0.01 0.01 0.01 83 1014.1
20260902031600 67 53 3.0 9.0 0.01 0.01 0.01 83 1013.9
20260902031101 67 302 4.0 9.0 0.01 0.01 0.01 83 1013.9
20260902030558 67 14 2.0 5.0 0.01 0.01 0.01 82 1013.3
20260902025559 67 360 0.0 3.0 0.01 0.01 0.01 81 1013.0
20260902025101 68 0 0.0 5.0 0.00 0.00 0.00 81 1013.4
20260902024606 68 0 0.0 5.0 0.00 0.00 0.00 81 1013.7
20260902024100 68 76 2.0 5.0 0.00 0.00 0.00 80 1013.9
20260902023558 68 18 2.0 7.0 0.00 0.00 0.00 79 1014.1
20260902023105 68 13 3.0 7.0 0.00 0.00 0.00 79 1014.4
20260902022634 68 38 2.0 6.0 0.00 0.00 0.00 79 1014.5
20260902022102 69 0 0.0 2.0 0.00 0.00 0.00 78 1014.6
20260902021604 69 0 0.0 2.0 0.00 0.00 0.00 78 1014.4
20260902021059 69 0 0.0 2.0 0.00 0.00 0.00 78 1014.1
20260902020559 69 0 0.0 4.0 0.00 0.00 0.00 78 1013.6
20260902020104 69 94 0.0 4.0 0.00 0.00 0.00 77 1013.4
20260902015559 69 88 1.0 4.0 0.00 0.00 0.00 76 1013.4
20260902015058 69 86 0.0 4.0 0.00 0.00 0.00 76 1013.4
20260902014600 69 0 1.0 4.0 0.00 0.00 0.00 76 1013.2
20260902014101 70 0 0.0 4.0 0.00 0.00 0.00 76 1013.2
20260902013558 70 80 0.0 2.0 0.00 0.00 0.00 76 1013.1
20260902013104 70 0 0.0 4.0 0.00 0.00 0.00 75 1013.1
20260902012558 70 103 1.0 4.0 0.00 0.00 0.00 74 1013.2
20260902012058 70 83 0.0 7.0 0.00 0.00 0.00 73 1013.2
20260902011601 70 0 0.0 7.0 0.00 0.00 0.00 73 1013.1
20260902011058 71 0 0.0 7.0 0.00 0.00 0.00 73 1013.2
20260902010558 71 0 0.0 4.0 0.00 0.00 0.00 73 1013.2
20260902010105 71 49 0.0 4.0 0.00 0.00 0.00 73 1013.4